When you browse on this site, cookies collect data to enhance your experience and personalize the content and advertising you see.
Visit our Privacy Policy to learn more. By continuing to use the site, you agree to this use of cookies and data.
  • En España
  • Lista de países
  • Para 7 días
  • Temperatura del agua
  • Mapa Satelital
  • El tiempo en el mapa
  • Informadores
  • user-avatar
    Iniciar sesión

    Tiempo cada hora Burajda

    Hoy, 19 Febrero, Martes

    Tiempo Temperatura Precipitaciones Viento Presión Humedad
    00:00 +14°C° 0 mm 3 mps 702 mmHg 30%
    01:00 +13°C° 0 mm 4 mps 702 mmHg 33%
    02:00 +12°C° 0 mm 4 mps 702 mmHg 36%
    03:00 +12°C° 0 mm 5 mps 701 mmHg 40%
    04:00 +10°C° 0 mm 5 mps 702 mmHg 43%
    05:00 +10°C° 0 mm 5 mps 703 mmHg 46%
    06:00 +9°C° 0 mm 6 mps 703 mmHg 49%
    07:00 +9°C° 0 mm 7 mps 704 mmHg 53%
    08:00 +9°C° 0 mm 8 mps 705 mmHg 57%
    09:00 +8°C° 0 mm 10 mps 706 mmHg 61%
    10:00 +8°C° 0.1 mm 9 mps 707 mmHg 62%
    11:00 +10°C° 0.1 mm 9 mps 707 mmHg 62%
    12:00 +10°C° 0.1 mm 8 mps 708 mmHg 62%
    13:00 +10°C° 0 mm 7 mps 708 mmHg 59%
    14:00 +10°C° 0 mm 6 mps 708 mmHg 56%
    15:00 +10°C° 0 mm 5 mps 708 mmHg 53%
    16:00 +11°C° 0 mm 4 mps 708 mmHg 52%
    17:00 +12°C° 0 mm 3 mps 708 mmHg 50%
    18:00 +12°C° 0 mm 3 mps 708 mmHg 48%
    19:00 +12°C° 0 mm 2 mps 709 mmHg 50%
    20:00 +12°C° 0 mm 2 mps 709 mmHg 52%
    21:00 +10°C° 0 mm 2 mps 710 mmHg 54%
    22:00 +10°C° 0 mm 2 mps 710 mmHg 55%
    23:00 +10°C° 0 mm 3 mps 710 mmHg 57%

    Mañana, 20 Febrero, Miércoles

    Tiempo Temperatura Precipitaciones Viento Presión Humedad
    00:00 +9°C° 0 mm 3 mps 710 mmHg 59%
    01:00 +9°C° 0 mm 3 mps 710 mmHg 60%
    02:00 +9°C° 0 mm 3 mps 710 mmHg 61%
    03:00 +8°C° 0 mm 3 mps 710 mmHg 63%
    04:00 +8°C° 0 mm 3 mps 710 mmHg 61%
    05:00 +8°C° 0 mm 3 mps 710 mmHg 59%
    06:00 +8°C° 0 mm 3 mps 710 mmHg 57%
    07:00 +9°C° 0 mm 2 mps 710 mmHg 51%
    08:00 +10°C° 0 mm 2 mps 711 mmHg 44%
    09:00 +12°C° 0 mm 2 mps 712 mmHg 37%
    10:00 +14°C° 0 mm 2 mps 712 mmHg 33%
    11:00 +15°C° 0 mm 2 mps 712 mmHg 29%
    12:00 +16°C° 0 mm 2 mps 711 mmHg 24%
    13:00 +16°C° 0 mm 1 mps 711 mmHg 23%
    14:00 +18°C° 0 mm 1 mps 710 mmHg 22%
    15:00 +18°C° 0 mm 1 mps 710 mmHg 20%
    16:00 +18°C° 0 mm 1 mps 710 mmHg 22%
    17:00 +18°C° 0 mm 1 mps 710 mmHg 23%
    18:00 +18°C° 0 mm 1 mps 710 mmHg 24%
    19:00 +16°C° 0 mm 1 mps 710 mmHg 25%
    20:00 +15°C° 0 mm 1 mps 711 mmHg 26%
    21:00 +15°C° 0 mm 2 mps 711 mmHg 27%
    22:00 +14°C° 0 mm 2 mps 711 mmHg 28%
    23:00 +14°C° 0 mm 2 mps 711 mmHg 29%

    Pasado mañana, 21 Febrero, Jueves

    Tiempo Temperatura Precipitaciones Viento Presión Humedad
    00:00 +14°C° 0 mm 2 mps 710 mmHg 30%
    01:00 +13°C° 0 mm 2 mps 710 mmHg 30%
    02:00 +13°C° 0 mm 2 mps 710 mmHg 31%
    03:00 +12°C° 0 mm 2 mps 709 mmHg 31%
    04:00 +12°C° 0 mm 2 mps 709 mmHg 31%
    05:00 +12°C° 0 mm 2 mps 709 mmHg 32%
    06:00 +10°C° 0 mm 2 mps 709 mmHg 32%
    07:00 +13°C° 0 mm 2 mps 710 mmHg 30%
    08:00 +13°C° 0 mm 3 mps 711 mmHg 28%
    09:00 +14°C° 0 mm 3 mps 711 mmHg 25%
    10:00 +16°C° 0 mm 3 mps 711 mmHg 23%
    11:00 +18°C° 0 mm 3 mps 711 mmHg 21%
    12:00 +19°C° 0 mm 4 mps 710 mmHg 19%
    13:00 +19°C° 0 mm 3 mps 710 mmHg 18%
    14:00 +20°C° 0 mm 3 mps 709 mmHg 17%
    15:00 +21°C° 0 mm 3 mps 709 mmHg 16%
    16:00 +20°C° 0 mm 2 mps 708 mmHg 17%
    17:00 +20°C° 0 mm 2 mps 708 mmHg 18%
    18:00 +19°C° 0 mm 2 mps 708 mmHg 19%
    19:00 +19°C° 0 mm 3 mps 708 mmHg 20%
    20:00 +18°C° 0 mm 4 mps 709 mmHg 21%
    21:00 +17°C° 0 mm 4 mps 709 mmHg 21%
    22:00 +16°C° 0 mm 5 mps 708 mmHg 22%
    23:00 +15°C° 0 mm 5 mps 708 mmHg 23%

    22 Febrero, Viernes

    Tiempo Temperatura Precipitaciones Viento Presión Humedad
    00:00 +15°C° 0 mm 5 mps 708 mmHg 24%
    01:00 +14°C° 0 mm 5 mps 707 mmHg 25%
    02:00 +14°C° 0 mm 5 mps 707 mmHg 26%
    03:00 +13°C° 0 mm 5 mps 707 mmHg 27%
    04:00 +13°C° 0 mm 5 mps 707 mmHg 27%
    05:00 +13°C° 0 mm 5 mps 707 mmHg 28%
    06:00 +12°C° 0 mm 5 mps 706 mmHg 28%
    07:00 +14°C° 0 mm 6 mps 707 mmHg 27%
    08:00 +15°C° 0 mm 7 mps 707 mmHg 25%
    09:00 +17°C° 0 mm 8 mps 707 mmHg 23%
    10:00 +20°C° 0 mm 7 mps 707 mmHg 21%
    11:00 +22°C° 0 mm 7 mps 707 mmHg 19%
    12:00 +24°C° 0 mm 6 mps 707 mmHg 17%
    13:00 +24°C° 0 mm 6 mps 706 mmHg 15%
    14:00 +26°C° 0 mm 6 mps 705 mmHg 13%
    15:00 +27°C° 0 mm 6 mps 705 mmHg 10%
    16:00 +26°C° 0 mm 5 mps 704 mmHg 11%
    17:00 +23°C° 0 mm 4 mps 704 mmHg 12%
    18:00 +22°C° 0 mm 3 mps 704 mmHg 12%
    19:00 +21°C° 0 mm 3 mps 705 mmHg 16%
    20:00 +20°C° 0 mm 4 mps 705 mmHg 20%
    21:00 +18°C° 0 mm 4 mps 705 mmHg 24%
    22:00 +18°C° 0 mm 4 mps 705 mmHg 25%
    23:00 +17°C° 0 mm 4 mps 705 mmHg 27%

    23 Febrero, Sábado

    Tiempo Temperatura Precipitaciones Viento Presión Humedad
    00:00 +16°C° 0 mm 3 mps 705 mmHg 28%
    01:00 +16°C° 0 mm 3 mps 705 mmHg 30%
    02:00 +14°C° 0 mm 3 mps 705 mmHg 31%
    03:00 +14°C° 0 mm 3 mps 705 mmHg 32%
    04:00 +13°C° 0 mm 3 mps 705 mmHg 33%
    05:00 +13°C° 0 mm 3 mps 705 mmHg 35%
    06:00 +12°C° 0 mm 3 mps 706 mmHg 36%
    07:00 +13°C° 0 mm 3 mps 706 mmHg 35%
    08:00 +14°C° 0 mm 3 mps 707 mmHg 34%
    09:00 +14°C° 0 mm 4 mps 708 mmHg 33%
    10:00 +17°C° 0 mm 3 mps 708 mmHg 29%
    11:00 +19°C° 0 mm 3 mps 708 mmHg 25%
    12:00 +20°C° 0 mm 3 mps 708 mmHg 21%
    13:00 +21°C° 0 mm 3 mps 707 mmHg 19%
    14:00 +23°C° 0 mm 2 mps 707 mmHg 17%
    15:00 +23°C° 0 mm 2 mps 707 mmHg 16%
    16:00 +23°C° 0 mm 2 mps 707 mmHg 17%
    17:00 +21°C° 0 mm 3 mps 707 mmHg 18%
    18:00 +21°C° 0 mm 3 mps 707 mmHg 19%
    19:00 +20°C° 0 mm 3 mps 707 mmHg 21%
    20:00 +19°C° 0 mm 3 mps 708 mmHg 23%
    21:00 +18°C° 0 mm 4 mps 708 mmHg 26%
    22:00 +17°C° 0 mm 3 mps 708 mmHg 27%
    23:00 +17°C° 0 mm 3 mps 707 mmHg 28%

    24 Febrero, Domingo

    Tiempo Temperatura Precipitaciones Viento Presión Humedad
    00:00 +16°C° 0 mm 3 mps 707 mmHg 29%
    01:00 +16°C° 0 mm 3 mps 707 mmHg 29%
    02:00 +14°C° 0 mm 3 mps 707 mmHg 30%
    03:00 +15°C° 0 mm 2 mps 707 mmHg 31%
    04:00 +14°C° 0 mm 2 mps 707 mmHg 32%
    05:00 +14°C° 0 mm 2 mps 707 mmHg 33%
    06:00 +13°C° 0 mm 2 mps 707 mmHg 34%
    07:00 +14°C° 0 mm 3 mps 708 mmHg 32%
    08:00 +16°C° 0 mm 3 mps 709 mmHg 30%
    09:00 +17°C° 0 mm 4 mps 709 mmHg 28%
    10:00 +19°C° 0 mm 4 mps 709 mmHg 24%
    11:00 +21°C° 0 mm 4 mps 709 mmHg 21%
    12:00 +23°C° 0 mm 5 mps 708 mmHg 17%
    13:00 +25°C° 0 mm 5 mps 708 mmHg 15%
    14:00 +26°C° 0 mm 5 mps 707 mmHg 14%
    15:00 +28°C° 0 mm 5 mps 707 mmHg 12%
    16:00 +27°C° 0 mm 5 mps 707 mmHg 12%
    17:00 +26°C° 0 mm 5 mps 706 mmHg 13%
    18:00 +25°C° 0 mm 4 mps 706 mmHg 14%
    19:00 +25°C° 0 mm 5 mps 706 mmHg 15%
    20:00 +23°C° 0 mm 5 mps 706 mmHg 17%
    21:00 +22°C° 0 mm 6 mps 707 mmHg 19%
    22:00 +22°C° 0 mm 7 mps 706 mmHg 22%
    23:00 +21°C° 0 mm 7 mps 706 mmHg 24%
    Mostrar más